Columbia / Mount Pleasant, TN

12:42 AM CST on November 21, 2019 (GMT -0600)
Maury County

Weather History for KMRC - October, 2019

Change the Weather History Date:

Monday, October 21, 2019

  Actual Average (KBNA) Record (KBNA)
Temperature  
Mean Temperature 64 °F -  
Max Temperature 69 °F 70 °F 88 °F (1947)
Min Temperature 60 °F 46 °F 29 °F (1952)
Growing Degree Days 14 (Base 50)    
Moisture  
Dew Point 64 °F    
Average Humidity 99    
Maximum Humidity 100    
Minimum Humidity 88    
Precipitation  
Precipitation 0.81 in - - ()
Sea Level Pressure  
Sea Level Pressure 29.83 in    
Wind  
Wind Speed 6 mph (SSW)    
Max Wind Speed 20 mph    
Max Gust Speed 31 mph    
Visibility 7 miles    
Events      
Averages and records for this station are not official NWS values.
T = Trace of Precipitation, MM = Missing Value Source: NWS Daily Summary

Daily Weather History Graph

Daily Weather History Graph

Search for Another Location

Airport or City:

Astronomy

Oct. 21, 2019 Rise Set
Actual Time 7:00 AM CDT 6:05 PM CDT
Civil Twilight 6:34 AM CDT 6:31 PM CDT
Nautical Twilight 6:04 AM CDT 7:01 PM CDT
Astronomical Twilight 5:35 AM CDT 7:31 PM CDT
Moon No Moon Rise 2:10 PM CDT
Length of Visible Light 11h 57m
Length of Day
11h 05m
Waning Gibbous, 48% of the Moon is Illuminated
Oct 21
Waning Gibbous
Oct 27
New
Nov 4
First Quarter
Nov 12
Full
Nov 19
Last Quarter

Hourly Weather History & Observations

Time (CDT) Temp. Dew Point Humidity Pressure Visibility Wind Dir Wind Speed Gust Speed Precip Events Conditions
12:15 AM 62.6 °F 60.8 °F 94% 29.89 in 10.0 mi Calm Calm - N/A   Mostly Cloudy
12:35 AM 62.6 °F 62.6 °F 100% 29.88 in 10.0 mi SSE 3.5 mph - N/A   Mostly Cloudy
12:55 AM 62.6 °F 62.6 °F 100% 29.87 in 10.0 mi Calm Calm - N/A   Scattered Clouds
1:15 AM 62.6 °F 62.6 °F 100% 29.86 in 10.0 mi Variable 4.6 mph - N/A   Scattered Clouds
1:35 AM 62.6 °F 62.6 °F 100% 29.85 in 10.0 mi Variable 4.6 mph - N/A   Overcast
1:55 AM 62.6 °F 62.6 °F 100% 29.84 in 10.0 mi SSE 6.9 mph - N/A   Mostly Cloudy
2:15 AM 64.4 °F 64.4 °F 100% 29.83 in 10.0 mi SSW 4.6 mph - N/A   Overcast
2:35 AM 64.4 °F 64.4 °F 100% 29.82 in 10.0 mi South 8.1 mph 13.8 mph N/A   Overcast
2:55 AM 64.4 °F 64.4 °F 100% 29.81 in 10.0 mi South 8.1 mph 16.1 mph N/A   Overcast
3:15 AM 64.4 °F 64.4 °F 100% 29.81 in 10.0 mi SSE 5.8 mph - N/A   Overcast
3:35 AM 64.4 °F 64.4 °F 100% 29.81 in 10.0 mi South 6.9 mph 13.8 mph N/A   Overcast
3:55 AM 64.4 °F 64.4 °F 100% 29.81 in 10.0 mi South 8.1 mph - N/A   Overcast
4:15 AM 64.4 °F 64.4 °F 100% 29.80 in 10.0 mi South 6.9 mph - N/A   Mostly Cloudy
4:35 AM 64.4 °F 64.4 °F 100% 29.80 in 10.0 mi South 8.1 mph - N/A   Partly Cloudy
4:55 AM 64.4 °F 64.4 °F 100% 29.80 in 10.0 mi South 6.9 mph 18.4 mph N/A   Scattered Clouds
5:15 AM 64.4 °F 64.4 °F 100% 29.80 in 10.0 mi SSE 5.8 mph 13.8 mph N/A   Partly Cloudy
5:35 AM 64.4 °F 64.4 °F 100% 29.82 in 10.0 mi SSW 9.2 mph - N/A   Clear
5:55 AM 64.4 °F 64.4 °F 100% 29.81 in 10.0 mi South 8.1 mph 15.0 mph N/A   Partly Cloudy
6:15 AM 66.2 °F 66.2 °F 100% 29.80 in 10.0 mi South 9.2 mph 17.3 mph N/A   Mostly Cloudy
6:35 AM 66.2 °F 66.2 °F 100% 29.80 in 10.0 mi South 9.2 mph 19.6 mph N/A   Mostly Cloudy
6:55 AM 66.2 °F 66.2 °F 100% 29.80 in 8.0 mi South 10.4 mph - N/A   Scattered Clouds
7:15 AM 66.2 °F 66.2 °F 100% 29.80 in 10.0 mi South 9.2 mph 18.4 mph N/A   Scattered Clouds
7:35 AM 66.2 °F 66.2 °F 100% 29.79 in 9.0 mi South 11.5 mph 19.6 mph N/A   Mostly Cloudy
7:55 AM 66.2 °F 66.2 °F 100% 29.78 in 9.0 mi South 13.8 mph 24.2 mph N/A   Mostly Cloudy
8:15 AM 68.0 °F 68.0 °F 100% 29.79 in 10.0 mi South 16.1 mph 27.6 mph N/A   Scattered Clouds
8:35 AM 69.8 °F 68.0 °F 94% 29.79 in 10.0 mi South 15.0 mph 25.3 mph N/A   Clear
8:55 AM 69.8 °F 66.2 °F 88% 29.80 in 10.0 mi SSW 19.6 mph 31.1 mph N/A   Scattered Clouds
9:15 AM 69.8 °F 68.0 °F 94% 29.83 in 6.0 mi SSW 15.0 mph 26.5 mph N/A   Mostly Cloudy
9:35 AM 68.0 °F 68.0 °F 100% 29.87 in 10.0 mi WSW 16.1 mph 23.0 mph N/A   Mostly Cloudy
9:55 AM 69.8 °F 68.0 °F 94% 29.86 in 10.0 mi SW 10.4 mph 19.6 mph N/A   Overcast
10:15 AM 68.0 °F 68.0 °F 100% 29.86 in 6.0 mi SSW 9.2 mph - N/A   Overcast
10:35 AM 66.2 °F 66.2 °F 100% 29.85 in 1.0 mi South 9.2 mph - N/A   Mostly Cloudy
10:55 AM 68.0 °F 68.0 °F 100% 29.85 in 7.0 mi South 8.1 mph - 0.14 in   Clear
11:15 AM 68.0 °F 68.0 °F 100% 29.86 in 10.0 mi South 9.2 mph - N/A   Mostly Cloudy
11:35 AM 68.0 °F 68.0 °F 100% 29.86 in 9.0 mi South 6.9 mph 12.7 mph N/A   Overcast
11:55 AM 68.0 °F 68.0 °F 100% 29.85 in 4.0 mi SSW 8.1 mph - 0.01 in   Mostly Cloudy
12:15 PM 68.0 °F 68.0 °F 100% 29.84 in 8.0 mi South 6.9 mph - N/A   Overcast
12:35 PM 68.0 °F 68.0 °F 100% 29.84 in 9.0 mi South 8.1 mph 13.8 mph N/A   Mostly Cloudy
12:55 PM 64.4 °F 64.4 °F 100% 29.86 in 1.5 mi SW 11.5 mph - 0.16 in   Overcast
1:15 PM 64.4 °F 64.4 °F 100% 29.86 in 2.0 mi South 6.9 mph - N/A   Mostly Cloudy
1:35 PM 62.6 °F 62.6 °F 100% 29.85 in 2.0 mi South 5.8 mph - N/A   Overcast
1:55 PM 62.6 °F 62.6 °F 100% 29.84 in 5.0 mi South 5.8 mph - 0.07 in   Mostly Cloudy
2:15 PM 62.6 °F 62.6 °F 100% 29.84 in 3.0 mi South 8.1 mph 13.8 mph N/A   Partly Cloudy
2:35 PM 62.6 °F 62.6 °F 100% 29.83 in 6.0 mi South 8.1 mph - N/A   Clear
2:55 PM 62.6 °F 62.6 °F 100% 29.82 in 8.0 mi South 8.1 mph - 0.03 in   Clear
3:15 PM 62.6 °F 62.6 °F 100% 29.82 in 5.0 mi SSE 5.8 mph - N/A   Clear
3:35 PM 62.6 °F 62.6 °F 100% 29.82 in 5.0 mi South 8.1 mph - N/A   Clear
3:55 PM 62.6 °F 62.6 °F 100% 29.82 in 6.0 mi South 8.1 mph - 0.02 in   Clear
4:15 PM 62.6 °F 62.6 °F 100% 29.81 in 5.0 mi South 6.9 mph - N/A   Partly Cloudy
4:35 PM 62.6 °F 62.6 °F 100% 29.80 in 4.0 mi South 8.1 mph 16.1 mph N/A   Clear
4:55 PM 62.6 °F 60.8 °F 94% 29.80 in 2.5 mi South 10.4 mph 16.1 mph 0.09 in   Scattered Clouds
5:15 PM 60.8 °F 60.8 °F 100% 29.80 in 4.0 mi South 8.1 mph - N/A   Mostly Cloudy
5:35 PM 60.8 °F 60.8 °F 100% 29.80 in 2.0 mi SSW 8.1 mph - N/A   Mostly Cloudy
5:55 PM 60.8 °F 60.8 °F 100% 29.82 in 1.2 mi SSW 8.1 mph - 0.18 in   Overcast
6:15 PM 60.8 °F 60.8 °F 100% 29.81 in 2.5 mi SW 5.8 mph - N/A   Overcast
6:35 PM 60.8 °F 60.8 °F 100% 29.82 in 2.0 mi SSW 8.1 mph - N/A   Overcast
6:55 PM 60.8 °F 60.8 °F 100% 29.82 in 10.0 mi SW 4.6 mph - 0.11 in   Mostly Cloudy
7:15 PM 60.8 °F 60.8 °F 100% 29.83 in 3.0 mi SSW 4.6 mph - N/A   Overcast
7:35 PM 62.6 °F 62.6 °F 100% 29.84 in 1.8 mi Calm Calm - N/A   Overcast
7:55 PM 62.6 °F 62.6 °F 100% 29.84 in 5.0 mi Calm Calm - N/A   Overcast
8:15 PM 62.6 °F 62.6 °F 100% 29.84 in 7.0 mi South 3.5 mph - N/A   Overcast
8:35 PM 62.6 °F 62.6 °F 100% 29.84 in 5.0 mi South 5.8 mph - N/A   Overcast
8:55 PM 62.6 °F 62.6 °F 100% 29.85 in 1.0 mi SSW 5.8 mph - N/A   Overcast
9:15 PM 62.6 °F 62.6 °F 100% 29.86 in 5.0 mi SW 4.6 mph - N/A   Mostly Cloudy
9:35 PM 62.6 °F 62.6 °F 100% 29.86 in 8.0 mi SW 4.6 mph - N/A   Overcast
9:55 PM 62.6 °F 62.6 °F 100% 29.87 in 10.0 mi WSW 4.6 mph - N/A   Overcast
10:15 PM 62.6 °F 62.6 °F 100% 29.87 in 10.0 mi WSW 5.8 mph - N/A   Overcast
10:35 PM 62.6 °F 62.6 °F 100% 29.88 in 10.0 mi Variable 5.8 mph - N/A   Overcast
10:55 PM 60.8 °F 60.8 °F 100% 29.88 in 10.0 mi WSW 5.8 mph - N/A   Overcast
11:15 PM 60.8 °F 60.8 °F 100% 29.87 in 10.0 mi WSW 8.1 mph - N/A   Overcast
11:35 PM 60.8 °F 60.8 °F 100% 29.87 in 10.0 mi WSW 5.8 mph - N/A   Overcast
11:55 PM 60.8 °F 60.8 °F 100% 29.87 in 10.0 mi WSW 5.8 mph - N/A   Overcast